Location: Eekwerd
(53.3234°N, 6.7984°E)
Time: 21:52:48
(UTC+00:00)

DNEPR-1 R/B - Pass Details

Date: 15 May 2026
Orbit: 580 x 1333 km, 64.6° (Epoch: 10 June)

Event Time Altitude Azimuth Distance (km) Brightness Sun altitude
Rises 20:21:01 0° 314° (NW) 3,145 9.9 -7.1°
Reaches altitude 10° 20:23:11 10° 314° (NW) 2,309 8.3 -7.3°
Maximum altitude 20:28:30 82° 228° (SW) 893 4.4 -7.9°
Enters shadow 20:35:01 10° 142° (SE) 2,799 6.2 -8.5°
